Location: Boulder, CO
(40.0083°N, 105.2472°W)
Time: 02:42:58
(UTC-06:00)

SORCE - Visible Passes

Search period start: 21 October 2014 00:00
Search period end: 31 October 2014 00:00
Orbit: 591 x 627 km, 40.0° (Epoch: 19 October)

Date Brightness Start Highest point End Pass type
(mag) Time Alt. Az. Time Alt. Az. Time Alt. Az.
21 Oct 8.1 04:44:57 21° SE 04:44:57 21° SE 04:46:34 10° SE visible
21 Oct 8.1 06:21:49 11° WSW 06:23:34 13° SW 06:25:40 10° S visible
22 Oct 8.2 04:57:59 17° SSE 04:57:59 17° SSE 04:59:16 10° SSE visible
23 Oct 8.5 05:11:06 11° S 05:11:06 11° S 05:11:25 10° S visible
26 Oct 8.4 19:48:33 10° SSE 19:48:40 10° SSE 19:48:40 10° SSE visible
27 Oct 7.9 19:59:47 10° SSW 20:01:37 18° S 20:01:37 18° S visible
28 Oct 7.6 20:12:04 10° SW 20:14:28 25° SSW 20:14:28 25° SSW visible
29 Oct 8.0 18:45:12 10° S 18:47:44 15° SE 18:50:16 10° ESE visible
29 Oct 7.5 20:24:48 10° SW 20:27:14 29° SW 20:27:14 29° SW visible
30 Oct 7.4 18:56:58 10° SSW 19:00:36 25° SSE 19:03:04 16° ESE visible
30 Oct 7.8 20:37:46 10° WSW 20:39:55 27° WSW 20:39:55 27° WSW visible
